This is the latest recevied weather packets stored in our database for station/object W9KHP-1. If no packets are shown the sender has not sent any weather packets the latest 1 day(s).
| Time | Temp. | Humidity | Pressure | Rain* | Wind** | Luminosity | Snow |
|---|---|---|---|---|---|---|---|
| 1836274790 | 21.11° C | 76% | 1018.9 hPa | 0 mm | 0 m/s | 0 W/m² | - |
| 1836274489 | 21.67° C | 75% | 1019 hPa | 0 mm | 0 m/s | 0 W/m² | - |
| 1836274342 | 21.11° C | 79% | 1019 hPa | 0 mm | 0 m/s | 0 W/m² | - |
| 1836274186 | 21.67° C | 74% | 1019 hPa | 0 mm | 0 m/s | 0 W/m² | - |
| 1836273880 | 21.67° C | 72% | 1019 hPa | 0 mm | 0 m/s | 0 W/m² | - |
| 1778064133 | 7.78° C | 99% | 1014.4 hPa | 0 mm | 0 m/s | 0 W/m² | - |
| 1778063829 | 7.78° C | 99% | 1014.2 hPa | 0 mm | 0 m/s | 0 W/m² | - |
| 1778063526 | 7.78° C | 99% | 1013.8 hPa | 0 mm | 0 m/s | 0 W/m² | - |
| 1778063224 | 7.78° C | 99% | 1013.5 hPa | 0 mm | 0 m/s | 0 W/m² | - |
| 1778062922 | 7.22° C | 99% | 1013.9 hPa | 0 mm | 0 m/s | 0 W/m² | - |
| 1778062619 | 7.22° C | 99% | 1013.7 hPa | 0 mm | 0 m/s | 0 W/m² | - |
| 1778062315 | 7.22° C | 99% | 1013.8 hPa | 0 mm | 0 m/s | 0 W/m² | - |
| 1778062014 | 7.22° C | 99% | 1013.7 hPa | 0 mm | 0 m/s | 0 W/m² | - |
| 1778061711 | 7.22° C | 99% | 1013.6 hPa | 0 mm | 0 m/s | 0 W/m² | - |
| 1778061410 | 7.22° C | 99% | 1013.3 hPa | 0 mm | 0 m/s | 0 W/m² | - |
| 1778061106 | 7.22° C | 99% | 1013.3 hPa | 0 mm | 0 m/s | 0 W/m² | - |
| 1778060803 | 7.78° C | 99% | 1013.1 hPa | 0 mm | 0.89 m/s, 359° | 0 W/m² | - |
| 1778060501 | 7.22° C | 99% | 1013.1 hPa | 0 mm | 0 m/s | 0 W/m² | - |
| 1778060199 | 7.78° C | 99% | 1013.5 hPa | 0 mm | 0 m/s | 0 W/m² | - |
| 1778059896 | 7.78° C | 99% | 1013.4 hPa | 0 mm | 0 m/s | 0 W/m² | - |
| 1778059594 | 7.78° C | 99% | 1013.3 hPa | 0 mm | 0 m/s | 0 W/m² | - |
| 1778059291 | 7.78° C | 99% | 1012.9 hPa | 0 mm | 0 m/s | 0 W/m² | - |
| 1778058989 | 7.78° C | 99% | 1013.5 hPa | 0 mm | 0 m/s | 0 W/m² | - |
| 1778058686 | 7.78° C | 99% | 1013.3 hPa | 0 mm | 0 m/s | 0 W/m² | - |
| 1778058384 | 8.33° C | 99% | 1012.9 hPa | 0 mm | 0 m/s | 0 W/m² | - |
* Rain latest hour (hover to see other rain measurements)
** Current wind speed in m/s (hover to see current wind gust speed)